Погода Анучино

Погода Анучино : погода сейчас, прогноз погоды и архив. Всё, что Вы хотите узнать о погоде Анучино!

Хотите узнать прогноз погоды Анучино? Тогда Вам сюда: Погода Анучино

Поиск расширенной информации на нашем сайте:

Другие новости

Новости СМИ2

Главная страница сайта

Новости сайта

03.07.2017

Напоминаем, что на нашем специализированном сайте Метеоцентр.Азия вы можете получить высокодетализированные автоматические прогнозы погоды по пунктам России, СНГ и мира в авиационном формате (включающие направление и скорость ветра, видимость, явления погоды, количество и форму облачности, нижнюю и верхнюю границу облачности).


Погода Анучино - сегодня

Время (UTC), дата Ветер
(°,м/с) 
Видим.   Явления Облачность Т
(°С)
Тd
(°С)
f(%) Тe
(°С)
Pmin
(гПа)
dP
(гПа)
Po
(мм)
O2
(г/м3)
Тmin Tmax R s Состояние
почвы
18 18.01.18 250 (З) 20000 м    ясно 
-21.9 -24.5 79 -22  1027.3  0.5  751  331           
21 18.01.18 тихо ()   20000 м    ясно 
-22.6 -25.4 78 -23  1026.5  -0.9  751  331  -24.1      27  равномерный
сухой снег
100% 
00 19.01.18 240 (ЮЗ) 20000 м    ясно 
-22 -24.8 78 -25  1027.1  0.6  751  331  -25.2         
03 19.01.18 250 (З) 20000 м    ясно 
-12 -19.3 55 -12  1022.1  -3.9  748  317           
06 19.01.18 210 (ЮЗ) 20000 м    ясно 
-2.1 -12.5 45 -4  1017.7  -3.4  746  304           
09 19.01.18 260 (З) 2{10}  20000 м    ясно 
-4.3 -9.7 66 -6  1017.3  -0.6  745  306    -2       
12 19.01.18 тихо ()   20000 м    ясно 
-10.7 -13.4 80 -11  1018  745  314           
15 19.01.18 тихо ()   20000 м    ясно 
-12.6 -14.1 89 -13  1017.6  -0.6  745  316           
18 19.01.18 тихо ()   20000 м    ясно 
-16.4 -18.4 84 -16  1017.8  -0.2  745  321           
21 19.01.18 220 (ЮЗ) 20000 м    ясно 
-16.4 -18.4 84 -17  1018  0.2  745  321  -17.6      27  равномерный
сухой снег
100% 
00 20.01.18 220 (ЮЗ) 20000 м    ясно 
-17.4 -19.5 84 -18  1019.1  746  322  -19         
03 20.01.18 280 (З) 20000 м    6/6 600 м 
[Cu med, cong]
-5.7 -16.1 44 -8  1018.3  0.3  746  308           
06 20.01.18 320 (СЗ) 4{11}  20000 м    1/1 600 м 
[Cu hum]
-7.9 -27.1 20 -12  1019  0.5  746  311           
09 20.01.18 тихо ()   20000 м    ясно 
-12.2 -25.8 31 -12  1020.9  1.5  747  317    -5.5       
12 20.01.18 тихо ()   20000 м    ясно 
-19.4 -24.8 62 -19  1022.7  1.1  748  326           
15 20.01.18 тихо ()   20000 м    ясно 
-22.3 -26.5 69 -22  1025.4  2.3  750  331           
18 20.01.18 240 (ЮЗ) 20000 м    ясно 
-27.8 -31 74 -28  1026.7  0.8  750  338           
21 20.01.18 тихо ()   20000 м    ясно 
-28.9 -32.2 73 -29  1027.4  0.5  751  340  -29.4      27  равномерный
сухой снег
100% 
00 21.01.18 220 (ЮЗ) 20000 м    4/0 средняя 
[Ac trans]
-27.5 -31.7 67 -28  1028.5  1.2  752  339  -30.8         
03 21.01.18 320 (СЗ) 20000 м    3/3 600 м 
[Cu hum]
-16.1 -28.4 34 -16  1026.6  -0.6  751  323           
06 21.01.18 300 (СЗ) 20000 м    ясно 
-14.5 -28.2 30 -15  1025.5  -0.9  750  321           
09 21.01.18 тихо ()   20000 м    ясно 
-20.1 -27.6 51 -20  1026.2  0.1  751  328    -14.3       
12 21.01.18 210 (ЮЗ) 20000 м    ясно 
-26.1 -30.3 68 -27  1027.4  0.5  751  336           
15 21.01.18 250 (З) 20000 м    ясно 
-26.3 -30.2 70 -27  1027.9  0.5  751  337           
18 21.01.18 220 (ЮЗ) 20000 м    ясно 
-28.2 -32 70 -29  1027.8  -0.3  751  339           
Время (UTC), дата Ветер
(°,м/с) 
Видим.   Явления Облачность Т
(°С)
Тd
(°С)
f(%) Тe
(°С)
Pmin
(гПа)
dP
(гПа)
Po
(мм)
O2
(г/м3)
Тmin Tmax R s Состояние
почвы

Для получения пояснительной информации подведите курсор к названию столбца.

ПОГОДА Анучино - архив

Всё, что Вы хотите узнать о погоде Анучино - удобно и подробно!

Выберите нужную дату (начиная с 1 января 2015* года) и нажмите кнопку "Найти".
Будут отображены архивные сводки погоды по пункту Анучино, начиная с указанной даты.


Отображать данные в формате CSV (для использования в таблицах Excel)


Внимание! Наш архив погоды предназначен исключительно для личного некоммерческого использования в познавательных целях. Если Вам необходимы официальные справки о состоянии погоды (для производственных, юридических, коммерческих и т.п. целей), обращайтесь в органы Росгидромета.

*Примечание: данная дата относится к архиву по метеостанциям СССР (Россия, СНГ, Балтия).
Архив по метеостанциям Зарубежной Европы и Азии (кроме Китая) хранится 10 дней, по другим регионам земного шара (Китай, Африка, Америка, Австралия, Океания) - 1 день.

Анучино - район местоположения метеостанции


Название, широта, долгота, высота метеостанции:
Анучино 44°ш. 133.1°д. 188 м над ур. моря [Российская Федерация]

Дополнительная информация

В oтличие oт бoльшинства пoгoдных сайтoв мы публикуем пoдрoбную метеoинфoрмацию в детальнoм прoфессиoнальнoм фoрмате.

Характеристики температуры и влажнoсти вoздуха измеряются на высoте 2 м в тени вдали oт зданий и деревьев.
Скoрoсть ветра измеряется на высoте 10 м (на урoвне рoста челoвека скoрoсть ветра ниже в 1.5-2 раза). Если метеoстанция нахoдится в гoрoде или в лесу, тo скoрoсть ветра занижена на 2-4 м/с пo сравнению с oткрытым местoм. Скoрoсть ветра над акватoриями крупных рек и oзёр, а также на вершинах хoлмoв на 2-5 м/с выше, чем в oбычных услoвиях.
Атмoсфернoе давление в разных тoчках местнoсти мoжет значительнo oтличаться oт давления на метеoстанции, в зависимoсти oт услoвий рельефа (при пoдъёме на 10 м давление пoнижается примернo на 1 мм рт.ст.).